Laramie, WY

10:45 AM MST on January 19, 2018 (GMT -0700)
Laramie Regional

Weather History for KLAR - February, 2013

Change the Weather History Date:

Wednesday, February 6, 2013

  Actual Average Record
Temperature  
Mean Temperature 29 °F -  
Max Temperature 41 °F 32 °F 57 °F (2015)
Min Temperature 16 °F 6 °F -37 °F (1989)
Degree Days  
Heating Degree Days 36    
Month to date heating degree days 204  
Moisture  
Dew Point 16 °F    
Average Humidity 54    
Maximum Humidity 75    
Minimum Humidity 32    
Precipitation  
Precipitation 0.00 in - - ()
Month to date precipitation T  
Year to date precipitation 0.15  
Sea Level Pressure  
Sea Level Pressure 29.85 in    
Wind  
Wind Speed 12 mph (WSW)    
Max Wind Speed 26 mph    
Max Gust Speed 30 mph    
Visibility 10 miles    
Events      
Averages and records for this station are not official NWS values.
T = Trace of Precipitation, MM = Missing Value Source: NWS Daily Summary

Daily Weather History Graph

Daily Weather History Graph

Search for Another Location

Airport or City:

Trip Planner

Search our weather history database for the weather conditions in past years. The results will help you decide how hot, cold, wet, or windy it might be!

Date:

Astronomy

Feb. 06, 2013 Rise Set
Actual Time 7:08 AM MST 5:25 PM MST
Civil Twilight 6:39 AM MST 5:54 PM MST
Nautical Twilight 6:06 AM MST 6:27 PM MST
Astronomical Twilight 5:34 AM MST 6:59 PM MST
Moon 3:55 AM MST (2/6) 1:45 PM MST (2/6)
Length of Visible Light 11h 15m
Length of Day
10h 17m
Waning Crescent, 16% of the Moon is Illuminated
Feb 6
Waning Crescent
Feb 10
New
Feb 17
First Quarter
Feb 25
Full
Mar 4
Last Quarter

Hourly Weather History & Observations

Time (MST) Temp. Windchill Dew Point Humidity Pressure Visibility Wind Dir Wind Speed Gust Speed Precip Events Conditions
12:53 AM 37.9 °F 35.5 °F 24.1 °F 57% 29.75 in 10.0 mi Variable 3.5 mph - N/A   Scattered Clouds
1:53 AM 32.0 °F 23.6 °F 21.9 °F 66% 29.77 in 10.0 mi WSW 10.4 mph - N/A   Partly Cloudy
2:53 AM 35.1 °F 25.9 °F 24.1 °F 64% 29.73 in 10.0 mi SSW 13.8 mph - N/A   Clear
3:53 AM 30.9 °F 20.7 °F 23.0 °F 72% 29.74 in 10.0 mi SW 13.8 mph - N/A   Mostly Cloudy
4:53 AM 30.9 °F 19.8 °F 21.0 °F 67% 29.77 in 10.0 mi SW 16.1 mph - N/A   Clear
5:53 AM 30.0 °F 21.1 °F 19.9 °F 66% 29.79 in 10.0 mi SW 10.4 mph - N/A   Clear
6:53 AM 30.9 °F 19.8 °F 21.0 °F 67% 29.78 in 10.0 mi WSW 16.1 mph - N/A   Scattered Clouds
7:53 AM 27.0 °F 18.7 °F 19.0 °F 72% 29.82 in 10.0 mi West 8.1 mph - N/A   Clear
8:53 AM 36.0 °F 26.7 °F 19.9 °F 52% 29.78 in 10.0 mi WSW 15.0 mph - N/A   Mostly Cloudy
9:53 AM 37.9 °F 28.2 °F 18.0 °F 45% 29.76 in 10.0 mi WSW 18.4 mph - N/A   Scattered Clouds
10:53 AM 39.9 °F 31.4 °F 16.0 °F 38% 29.77 in - WSW 16.1 mph - N/A   Overcast
11:53 AM 41.0 °F 32.2 °F 15.1 °F 35% 29.77 in 10.0 mi WNW 18.4 mph 25.3 mph N/A   Overcast
12:53 PM 41.0 °F 31.6 °F 14.0 °F 33% 29.75 in 10.0 mi WNW 20.7 mph - N/A   Overcast
1:53 PM 37.9 °F 28.2 °F 15.1 °F 39% 29.81 in 10.0 mi West 18.4 mph 26.5 mph N/A   Overcast
2:53 PM 37.0 °F 27.4 °F 12.0 °F 36% 29.82 in 10.0 mi NW 17.3 mph - N/A   Overcast
3:53 PM 36.0 °F 24.4 °F 10.0 °F 34% 29.86 in 10.0 mi WNW 23.0 mph - N/A   Overcast
4:53 PM 33.1 °F 24.4 °F 10.9 °F 40% 29.91 in 10.0 mi West 11.5 mph - N/A   Overcast
5:53 PM 30.9 °F 20.7 °F 12.9 °F 47% 29.94 in 10.0 mi WSW 13.8 mph - N/A   Overcast
6:53 PM 28.9 °F 25.2 °F 12.9 °F 51% 29.98 in 10.0 mi WNW 3.5 mph - N/A   Overcast
7:53 PM 25.0 °F 20.7 °F 10.9 °F 55% 30.03 in 10.0 mi WSW 3.5 mph - N/A   Clear
8:53 PM 25.0 °F 18.1 °F 10.9 °F 55% 29.99 in 10.0 mi West 5.8 mph - N/A   Clear
9:53 PM 19.9 °F - 10.0 °F 65% 30.05 in 10.0 mi Calm Calm - N/A   Clear
10:53 PM 19.9 °F 12.1 °F 9.0 °F 62% 30.05 in 10.0 mi SSE 5.8 mph - N/A   Clear
11:53 PM 19.9 °F - 10.0 °F 65% 30.06 in 10.0 mi Calm Calm - N/A   Clear